Regional Weather Roundup
Issued by NWS Midland/Odessa, TX

Skip options and go directly to product.
Home | Oldest Version | Previous Version | Current Version | All | Text Only | Save Text | Print | Product List | Glossary On

Skip product version selection by date and time.   
181
ASUS44 KMAF 281610
RWRMAF
MIDLAND AREA WEATHER ROUNDUP
NATIONAL WEATHER SERVICE MIDLAND TX
1100 AM CDT THU JUL 28 2016

...IN SOUTHWEST TEXAS AND SOUTHEAST NEW MEXICO...

CITY           SKY/WX    TMP DP  RH WIND       PRES   REMARKS
ALPINE         SUNNY     82  58  45 NE9       30.22S
ANDREWS        FAIR      83  64  52 CALM      30.13R
ARTESIA        SUNNY     82  61  47 N9        30.15S
BIG SPRING     SUNNY     83  66  56 S3        30.12S
CARLSBAD       SUNNY     83  62  49 N9        30.12R
DRYDEN           N/A     83  71  67 E9        30.04S
FORT STOCKTON  SUNNY     83  65  54 SE12G18   30.09S
GUAD PASS      SUNNY     80  57  45 E18       30.25S
HOBBS          SUNNY     86  61  42 NE3       30.15S
MARFA          PTSUNNY   82  58  43 NE20G28   30.19S
MIDLAND AIRPK  SUNNY     84  65  52 SE5       30.11R
MIDLAND INTL   SUNNY     83  66  56 SE6       30.10S
ODESSA         SUNNY     82  65  56 VRB5      30.11S
PECOS          SUNNY     86  64  46 E9        30.07S
PRESIDIO       FAIR      86  64  47 NE12      30.04F
SEMINOLE       SUNNY     86  62  44 E3        30.13S
SNYDER           N/A     84  66  54 W5        30.09F
WINK           SUNNY     85  64  49 SE7       30.08R
$$
...OTHER STATIONS IN TEXAS...

CITY           SKY/WX    TMP DP  RH WIND       PRES   REMARKS
ABILENE        PTSUNNY   84  69  60 SW7       30.06F
AMARILLO       SUNNY     81  60  48 VRB3      30.16F
AUSTIN         CLOUDY    86  76  71 SW9       30.02S
BROWNSVILLE    MOSUNNY   93  74  53 S18       29.97S HX 103
CORPUS CHRISTI PTSUNNY   91  76  61 SE15G21   29.97F HX 103
DALLAS FTW     PTSUNNY   88  71  57 W12       29.99S
DEL RIO        CLOUDY    83  72  69 SE6       29.99F
EL PASO        MOSUNNY   87  56  34 VRB6      30.12S
HOUSTON INT    PTSUNNY   89  76  65 SW8       30.01F HX 100
LUBBOCK        MOSUNNY   85  60  42 NE8       30.12F
SAN ANGELO     CLOUDY    86  69  56 MISG      30.06S
SAN ANTONIO    PTSUNNY   86  74  67 S7        30.03S
WACO           CLOUDY    85  72  65 SW10      30.02S
WICHITA FALLS  NOT AVBL
$$
...OTHER LOCATIONS IN NEW MEXICO...

CITY           SKY/WX    TMP DP  RH WIND       PRES   REMARKS
ALAMAGORDO     NOT AVBL
ALBUQUERQUE    MOSUNNY   80  55  42 CALM      30.26F
CANNON AFB     SUNNY     79  60  51 E7        30.20
CLOVIS         SUNNY     81  55  41 E8        30.20F
HOLLOMAN AFB   SUNNY     87  54  32 VRB6      30.13S
ROSWELL        SUNNY     82  59  45 N6        30.15S
RUIDOSO          N/A     75  50  41 NE7       30.38S
SANTA FE       SUNNY     78  51  38 CALM      30.32F
TRUTH OR CONSE SUNNY     81  56  42 N5        30.20S
TUCUMCARI      SUNNY     79  58  48 E7        30.18F
$$

USA.gov is the U.S. government's official web portal to all federal, state and local government web resources and services.